Location: Misciano
(43.5000°N, 11.9500°E)
Time: 21:54:36
(UTC+00:00)

Cosmos 1697 Rocket - Pass Details

Date: 13 August 2020
Orbit: 834 x 842 km, 71.0° (Epoch: 21 September)

Event Time Altitude Azimuth Distance (km) Brightness Sun altitude
Rises 19:31:32 0° 330° (NNW) 3,389 7.1 -12.6°
Reaches altitude 10° 19:34:02 10° 326° (NW) 2,451 6.3 -13.0°
Maximum altitude 19:39:27 51° 252° (WSW) 1,036 3.4 -13.8°
Drops below altitude 10° 19:44:50 10° 177° (S) 2,438 4.7 -14.6°
Enters shadow 19:45:19 - 176° (S) 2,616 4.9 -14.7°
